[[{"header":{"parameterUnit":"m.s-1","parameterCategory":1,"la1":30.2991,"la2":30.254,"lo1":-89.0895,"lo2":-89.0444,"dy":0.0017,"dx":0.0017,"nx":28,"ny":28,"refTime":"2024-06-23T03:00:00:Z","depth":0,"parameterNumber":2,"parameterNumberName":"U-component_of_WINDS"},"data":[0,0,0,0,0,0,0,0,0,0,0,0,0,0,0,0,0,0,0,0,0,0,0,0,0,0,0,0,0,0,0,0,0,0,0,0,0,0,0,0,0,0,0,0,0,0,0,0,0,0,0,0,0,0,0,0,0,0,1.143,1.1431,0,1.1493,1.1494,1.1495,1.1511,1.151,1.151,1.151,1.1574,1.1576,1.1578,0,0,0,0,0,0,0,0,0,0,0,0,0,1.1325,1.1327,1.143,1.1431,1.1432,1.1493,1.1494,1.1495,1.1511,1.151,1.151,1.151,1.1574,1.1576,1.1579,0,0,0,0,0,0,0,0,0,0,0,0,0,1.1377,1.1327,1.143,1.1447,1.1449,1.1493,1.1494,1.1495,1.1511,1.151,1.151,1.1509,1.1573,1.1576,1.1579,1.161,0,0,1.1588,1.159,0,0,0,0,0,0,0,0,1.1374,1.1381,1.1444,1.1446,1.1449,1.1494,1.148,1.1533,1.1511,1.1488,1.151,1.1509,1.1548,1.1553,1.1566,1.1613,1.1616,1.1589,1.1591,1.1592,1.1593,0,0,0,0,0,0,0,1.1371,1.1379,1.1455,1.1445,1.1448,1.1452,1.1459,1.1491,1.152,1.149,1.1491,1.1498,1.1549,1.1563,1.1568,1.1616,1.1589,1.1591,1.1593,1.1594,1.1693,1.1693,0,0,0,0,0,0,1.1364,1.1375,1.1453,1.1457,1.1409,1.1454,1.1462,1.148,1.152,1.1525,1.1499,1.1499,1.1558,1.1564,1.157,1.1609,1.1592,1.1595,1.1597,1.1692,1.1693,1.1694,0,0,0,0,0,0,1.1362,1.1371,1.1451,1.1417,1.1427,1.1457,1.1477,1.1481,1.1495,1.1527,1.1532,1.1507,1.1558,1.1566,1.16,1.1612,1.1596,1.1599,1.1691,1.1692,1.1693,1.1688,0,0,0,0,0,0,1.1359,1.137,1.1382,1.1417,1.1429,1.1479,1.1477,1.1483,1.1501,1.1501,1.1536,1.1542,1.1558,1.1595,1.1603,1.1616,1.1601,1.169,1.1692,1.1693,1.1687,1.1689,1.169,0,0,0,0,0,1.1355,1.1377,1.1382,1.1391,1.1444,1.148,1.1487,1.1505,1.1501,1.1514,1.1534,1.1541,1.1609,1.1599,1.1608,1.1621,1.169,1.1691,1.1693,1.1686,1.1688,1.169,0,0,0,0,0,0,1.1343,1.1382,1.1388,1.1423,1.1448,1.1482,1.1498,1.1506,1.1533,1.1532,1.1554,1.1562,1.1595,1.1612,1.1599,1.1654,1.165,1.1653,1.1642,1.1644,1.1645,1.164,1.1604,0,0,0,0,0,1.1344,1.1369,1.1403,1.143,1.1442,1.1468,1.1484,1.1496,1.1523,1.1534,1.1557,1.1583,1.161,1.1628,1.1655,1.169,1.1698,1.1704,1.1705,1.1706,1.1709,1.1729,1.1733,1.1699,1.1699,1.1699,0,0,1.1347,1.1372,1.1386,1.1428,1.1449,1.1475,1.1477,1.1504,1.1524,1.1538,1.1572,1.159,1.162,1.1655,1.1672,1.167,1.172,1.1708,1.1709,1.1711,1.1731,1.1735,1.1737,1.17,1.17,1.17,0,0,1.1366,1.1387,1.1412,1.1433,1.1465,1.1482,1.1488,1.1522,1.1535,1.1569,1.158,1.1604,1.1651,1.1673,1.169,1.1718,1.1725,1.1726,1.1734,1.1753,1.1756,1.1758,1.1769,1.1772,1.1729,1.1729,1.1729,0,1.1365,1.1405,1.1424,1.1452,1.147,1.1484,1.151,1.153,1.1569,1.1581,1.1579,1.1639,1.166,1.1701,1.1708,1.1721,1.1729,1.1722,1.1754,1.1756,1.1759,1.1769,1.1773,1.1729,1.1729,1.1729,1.1729,0,1.1403,1.1431,1.1447,1.1485,1.1505,1.1532,1.1555,1.1574,1.1584,1.1602,1.1637,1.1664,1.1697,1.1707,1.1718,1.1749,1.1748,1.1749,1.1745,1.1762,1.1772,1.1776,1.1729,1.1729,1.1729,1.1729,0,0,1.1415,1.1464,1.147,1.1487,1.1524,1.1546,1.1573,1.1605,1.1621,1.1648,1.1671,1.1711,1.1714,1.1733,1.1746,1.1763,1.1784,1.1763,1.1764,1.1766,1.1822,1.182,1.1824,1.179,1.179,1.1791,1.1819,0,1.1439,1.1488,1.1507,1.1547,1.1573,1.1588,1.1612,1.1637,1.1655,1.1679,1.1699,1.1727,1.1727,1.1739,1.1757,1.1778,1.1796,1.1776,1.1812,1.1813,1.1804,1.1829,1.1827,1.1852,1.1823,1.1824,1.1824,0,1.1472,1.15,1.1543,1.1577,1.1589,1.161,1.1641,1.1665,1.1694,1.1706,1.1728,1.174,1.177,1.1764,1.1806,1.1793,1.1809,1.1821,1.1823,1.1826,1.1819,1.1834,1.1861,1.1865,1.1831,1.183,1.183,0,1.1477,1.1524,1.1557,1.1571,1.1612,1.1627,1.1644,1.1673,1.1692,1.1719,1.1732,1.1763,1.178,1.1804,1.1824,1.1818,1.1864,1.186,1.1875,1.1874,1.1883,1.1883,1.1913,1.1894,1.1894,1.1894,1.1894,0,1.1501,1.1527,1.1559,1.1579,1.1609,1.1631,1.1659,1.1678,1.1704,1.1728,1.1742,1.1764,1.179,1.1816,1.1832,1.1865,1.1872,1.1883,1.1887,1.1881,1.188,1.1892,1.189,1.1895,1.1895,1.1894,1.1894,0,1.151,1.1533,1.157,1.1605,1.1615,1.1635,1.1666,1.1686,1.1705,1.1735,1.1743,1.1772,1.1804,1.1827,1.1867,1.1878,1.1912,1.1917,1.1902,1.1904,1.1918,1.1916,1.1957,1.1964,1.194,1.194,1.194,0,1.1524,1.1544,1.1583,1.16,1.1618,1.1645,1.1664,1.1687,1.1706,1.1742,1.1758,1.179,1.1817,1.1866,1.1891,1.1922,1.1927,1.1939,1.1932,1.1926,1.1927,1.1926,1.1928,1.194,1.194,1.194,1.194,0,1.1546,1.1557,1.1584,1.1615,1.1638,1.1664,1.169,1.1703,1.173,1.1752,1.1784,1.1805,1.1846,1.1878,1.1912,1.193,1.194,1.1943,1.1948,1.1942,1.1933,1.1938,1.1905,1.1941,1.1941,1.1941,1.1941,1.1941,1.1558,1.1577,1.1607,1.1637,1.1659,1.1684,1.1704,1.1726,1.1753,1.1788,1.18,1.1834,1.1864,1.191,1.1929,1.1956,1.1955,1.1963,1.1964,1.1966,1.1966,1.1929,1.1962,1.1962,1.1962,1.1962,1.1962,0,1.1581,1.1601,1.1629,1.1665,1.1689,1.1696,1.1726,1.1745,1.1774,1.1801,1.1828,1.1865,1.1896,1.1924,1.1957,1.1973,1.1978,1.1981,1.1979,1.1984,1.1964,1.1956,1.1976,1.1976,1.1976,1.1976,1.1976,1.1976,1.1595,1.1628,1.1642,1.1687,1.1707,1.174,1.1756,1.1779,1.18,1.1841,1.1867,1.1885,1.1913,1.1948,1.1977,1.1985,1.1996,1.1997,1.2006,1.1987,1.1985,1.1983,1.1976,1.2,1.2,1.2024,1.2024,1.2024]},{"header":{"parameterUnit":"m.s-1","parameterCategory":1,"la1":30.2991,"la2":30.254,"lo1":-89.0895,"lo2":-89.0444,"dy":0.0017,"dx":0.0017,"nx":28,"ny":28,"refTime":"2024-06-23T03:00:00:Z","depth":0,"parameterNumber":3,"parameterNumberName":"V-component_of_WINDS"},"data":[0,0,0,0,0,0,0,0,0,0,0,0,0,0,0,0,0,0,0,0,0,0,0,0,0,0,0,0,0,0,0,0,0,0,0,0,0,0,0,0,0,0,0,0,0,0,0,0,0,0,0,0,0,0,0,0,0,0,0.2707,0.2708,0,0.2787,0.2788,0.2789,0.2815,0.2814,0.2814,0.2814,0.2898,0.2901,0.2903,0,0,0,0,0,0,0,0,0,0,0,0,0,0.258,0.2582,0.2707,0.2708,0.2709,0.2787,0.2788,0.2789,0.2815,0.2814,0.2814,0.2814,0.2897,0.2901,0.2904,0,0,0,0,0,0,0,0,0,0,0,0,0,0.2645,0.2583,0.2707,0.2731,0.2734,0.2787,0.2788,0.279,0.2815,0.2814,0.2814,0.2813,0.2896,0.29,0.2904,0.2939,0,0,0.2916,0.2918,0,0,0,0,0,0,0,0,0.2641,0.265,0.2727,0.273,0.2733,0.279,0.2774,0.284,0.2815,0.2784,0.2814,0.2813,0.2863,0.287,0.2886,0.2943,0.2947,0.2916,0.2919,0.292,0.2921,0,0,0,0,0,0,0,0.2637,0.2646,0.2739,0.2728,0.2732,0.2739,0.2748,0.2787,0.2826,0.2787,0.2789,0.2798,0.2865,0.2882,0.2888,0.2948,0.2916,0.292,0.2922,0.2924,0.3039,0.304,0,0,0,0,0,0,0.2628,0.2642,0.2736,0.2741,0.2685,0.2742,0.2752,0.2773,0.2826,0.2833,0.2798,0.2799,0.2876,0.2884,0.2891,0.2936,0.292,0.2924,0.2926,0.3038,0.3039,0.304,0,0,0,0,0,0,0.2625,0.2636,0.2733,0.2693,0.2705,0.2745,0.2768,0.2775,0.2792,0.2834,0.2842,0.2809,0.2876,0.2886,0.2927,0.294,0.2926,0.2929,0.3037,0.3039,0.304,0.3026,0,0,0,0,0,0,0.2621,0.2635,0.2648,0.2693,0.2708,0.2767,0.2769,0.2776,0.2798,0.28,0.2846,0.2853,0.2876,0.2921,0.2931,0.2945,0.2932,0.3036,0.3038,0.3039,0.3026,0.3027,0.3028,0,0,0,0,0,0.2616,0.2641,0.2648,0.2659,0.2724,0.2767,0.2776,0.2801,0.2799,0.2813,0.284,0.2852,0.2936,0.2925,0.2936,0.2952,0.3036,0.3037,0.3039,0.3026,0.3027,0.3028,0,0,0,0,0,0,0.2598,0.2648,0.2656,0.2696,0.2727,0.2772,0.279,0.2802,0.2835,0.2835,0.2866,0.2876,0.2915,0.2938,0.2924,0.2989,0.2987,0.2991,0.2973,0.2974,0.2975,0.2969,0.2936,0,0,0,0,0,0.2598,0.2628,0.267,0.2701,0.2717,0.275,0.277,0.2787,0.2821,0.2835,0.2865,0.2898,0.2933,0.2955,0.2988,0.3029,0.304,0.3045,0.3046,0.3047,0.305,0.3074,0.3077,0.3045,0.3045,0.3045,0,0,0.2599,0.263,0.2647,0.2698,0.2725,0.2756,0.2762,0.2794,0.2818,0.284,0.2881,0.2904,0.2943,0.2985,0.3004,0.3005,0.3061,0.3049,0.3049,0.3052,0.3076,0.3079,0.3081,0.3046,0.3046,0.3046,0,0,0.2618,0.2644,0.2673,0.2699,0.2738,0.2761,0.2768,0.2811,0.2827,0.2868,0.2885,0.2914,0.2973,0.3,0.3022,0.3051,0.3063,0.3061,0.3066,0.3089,0.3092,0.3094,0.3105,0.3108,0.3064,0.3064,0.3064,0,0.2615,0.2661,0.2687,0.2718,0.2741,0.2761,0.2791,0.2816,0.2864,0.288,0.2879,0.2953,0.2981,0.3029,0.3036,0.3053,0.3062,0.3056,0.3089,0.3092,0.3094,0.3105,0.3109,0.3064,0.3064,0.3064,0.3064,0,0.2656,0.2688,0.2707,0.2753,0.2777,0.2808,0.2839,0.2861,0.2875,0.2898,0.294,0.2974,0.3016,0.3029,0.3043,0.3079,0.3078,0.3083,0.3082,0.3096,0.3107,0.3111,0.3063,0.3063,0.3063,0.3063,0,0,0.2665,0.2724,0.2731,0.2752,0.2797,0.2823,0.2855,0.2895,0.2913,0.2946,0.2975,0.3023,0.3028,0.3053,0.3071,0.3091,0.3112,0.3093,0.3095,0.3096,0.3155,0.3151,0.3155,0.312,0.3121,0.3122,0.3152,0,0.269,0.2747,0.2771,0.2817,0.2848,0.2868,0.2896,0.2927,0.295,0.2979,0.3005,0.3039,0.3042,0.3057,0.3078,0.3105,0.3125,0.3103,0.3148,0.3149,0.3138,0.3161,0.3157,0.3184,0.3156,0.3157,0.3157,0,0.2726,0.2758,0.2808,0.285,0.2863,0.2888,0.2927,0.2955,0.2991,0.3006,0.3033,0.305,0.3085,0.3081,0.3131,0.3116,0.3136,0.3152,0.3154,0.316,0.3154,0.3168,0.3193,0.3197,0.3164,0.3163,0.3163,0,0.2728,0.2784,0.2821,0.2839,0.2888,0.2905,0.2927,0.2962,0.2985,0.3019,0.3034,0.3072,0.3093,0.3122,0.3149,0.3144,0.3197,0.3195,0.3211,0.321,0.3221,0.322,0.325,0.3233,0.3233,0.3233,0.3233,0,0.2753,0.2783,0.2823,0.2846,0.288,0.2907,0.2941,0.2964,0.2995,0.3024,0.3043,0.307,0.3104,0.3135,0.3156,0.3195,0.3204,0.3218,0.3223,0.3216,0.3215,0.323,0.3229,0.3234,0.3234,0.3234,0.3234,0,0.2762,0.2789,0.2831,0.2874,0.2886,0.2909,0.2947,0.297,0.2993,0.3029,0.3039,0.3076,0.3113,0.3143,0.3192,0.3207,0.3247,0.3253,0.3235,0.3238,0.3252,0.3251,0.3293,0.3301,0.3278,0.3278,0.3278,0,0.2776,0.2799,0.2845,0.2865,0.2886,0.2918,0.2941,0.2969,0.2992,0.3035,0.3054,0.3092,0.3125,0.3184,0.3216,0.3254,0.3261,0.3273,0.3267,0.3259,0.3262,0.326,0.3263,0.3274,0.3274,0.3274,0.3274,0,0.2799,0.2811,0.2843,0.288,0.2906,0.2937,0.2968,0.2983,0.3017,0.3042,0.3081,0.3106,0.3156,0.3194,0.3236,0.3259,0.3273,0.3276,0.3282,0.3275,0.3264,0.3271,0.3237,0.3275,0.3275,0.3275,0.3275,0.3275,0.2811,0.2833,0.2868,0.2903,0.2929,0.2957,0.2982,0.3008,0.304,0.3082,0.3097,0.3136,0.3173,0.3229,0.3253,0.3285,0.3286,0.3294,0.3296,0.3298,0.3297,0.3258,0.3292,0.3293,0.3293,0.3293,0.3293,0,0.2835,0.2859,0.289,0.2933,0.296,0.297,0.3005,0.3028,0.3062,0.3094,0.3126,0.317,0.3207,0.3242,0.3281,0.33,0.3308,0.331,0.3309,0.3314,0.3294,0.3285,0.3303,0.3303,0.3303,0.3303,0.3303,0.3303,0.2851,0.2888,0.2905,0.2956,0.298,0.3018,0.3037,0.3064,0.309,0.3138,0.3169,0.3191,0.3225,0.3266,0.3302,0.3311,0.3325,0.3325,0.3336,0.3317,0.3315,0.3314,0.3306,0.3328,0.3328,0.3354,0.3354,0.3354]}]]